STARLINK-32267, 60363

Orbit data source: Space-Track

STARLINK-32267, 60363 is a payload satellite owned by SpaceX/Seattle (US) in LEO that was launched on Sun, 04 Aug 2024 UTC via an FALCON 9 launch vehicle from the Air Force Western Test Range (AFWTR). Payload-class satellites include a variety of spacecraft equipped with specific instruments for various scientific and technological missions. These include communications satellites like Starlink; space stations such as the ISS; scientific satellites like the Hubble; Earth observation satellites from companies like Planet Labs, Umbra, and HawkEye 360; GPS; miniature CubeSats for education and research; and military/defense satellites.

Loading next visibility...
Identifier
60363, 2024-138J
Orbit
LEO
Country
Flag of USUS
Related business
Manufacturer
SpaceX/Seattle
Mission
Operational Commercial Communications
Bus & Motor
STARLINK V2M, Unknown motor
Mass
730 kg wet, ~700 kg dry
Launch date (UTC)
2024-08-04 (1 year ago)
Launch vehicle
FALCON 9
Launch site
Air Force Western Test Range (AFWTR)
Object type
Payload
Rocket body
Debris
Shape & HBR
Box + 2 Pan, 14.5 m
Radar Cross Section
33.884 m², Large (>1 m²)

Expand to show TLE details & history
Last TLE update: 8 hours ago

TLE from 8 hours ago
0 STARLINK-32267
1 60363U 24138J   25258.57362032 -.00000940  00000-0 -19625-4 0  9998
2 60363  53.1617  43.2039 0001078  89.0897 271.0227 15.30204376 63811
Epoch: 2025-09-15T13:46Z
TLE epoch observation values (Epoch: 2025-09-15T13:46:00.795Z)
Latitude
-0.00005°
Longitude
-158.07578°
Altitude
476.089 km
Speed
7.629 km/s
True Right ascension
02h 52m 48s
True Declination
0° 00' 00"
Sunlit
Object was in full shadow at epoch
Visualization orbit readout
Latitude
Unknown
Longitude
Unknown
Altitude
Unknown
Speed
Unknown
Apparent Right ascension
Unknown
Apparent Declination
Unknown
Sunlit
N/A
Visualization observer readout
Local Sidereal Time
13:57:45
Azimuth
Unknown
Elevation
Unknown
Doppler factor
Unknown
Orbital elements
Apogee altitude
476.197 km
Perigee altitude
474.719 km
Semi-major axis
6,853.595 km
Eccentricity
0.00011
Inclination
53.1617°
RAAN
43.2039°
Arg. of periapsis
89.0897°
True anomaly
271.01035°
Mean anomaly
271.0227°
Eccentric anomaly
271.01652°
Mean motion
3.8253 °/min
Orbital period
94.11 mins
BSTAR
-0.000019625
Loading maneuver chart data...
Computing Atmospheric mass density...
Loading historical data...
Loading historical data...
Loading historical data...
Loading historical data...
Loading historical data...
Loading historical data...
Loading historical data...

Documentation

Showing up to 5 results
|